sat.trackr.live / text

‹ back to catalog

STARLINK-37663

NORAD 69048 · 2026-101Z

PAYLOAD ACTIVE UNKNOWN

§ Identity

Operator
Country
US
Launch date
2026-05-06
Launch site
AFWTR
Launch vehicle
Mass (kg)
RCS (m²)

Purposes: comms

External: N2YO · Heavens-Above · Gunter

§ Orbital elements

Epoch: 2026-09-18T03:51:29.918016Z

Period
93.91 min
Inclination
97.2844°
Eccentricity
0.0001983
Mean motion
15.33437893 rev/d
Perigee alt
464.2 km
Apogee alt
466.9 km
Semi-major
6,843.7 km
B*
1.7122e-4
RAAN
114.7287°
Arg perigee
88.6769°
Mean anomaly
271.4701°
Rev number
2,082

§ Raw data

STARLINK-376631 69048U 26101Z   26261.16076294  .00005455  00000+0  17122-3 0  99932 69048  97.2844 114.7287 0001983  88.6769 271.4701 15.33437893 20828

JSON: /api/v1/satellites/69048 · /tle

For live sub-satellite position, see the globe view (requires WebGL).

§ Visibility from observer

Set your observer location to see the next 7 days of passes ≥ 10°. The values pass through the URL so the page stays shareable.

No JS? Fill the form by hand. The geolocation button needs JavaScript.